Crane Lake, MN

7:56 PM CST on December 04, 2016 (GMT -0600)
Crane Lake

Weather History for KCDD - November, 2012

Change the Weather History Date:

Tuesday, November 6, 2012

  Actual Average Record
Temperature  
Mean Temperature 34 °F -  
Max Temperature 37 °F 36 °F 68 °F (2016)
Min Temperature 32 °F 24 °F 10 °F (2003)
Degree Days  
Heating Degree Days 30    
Moisture  
Dew Point 33 °F    
Average Humidity 95    
Maximum Humidity 100    
Minimum Humidity 87    
Precipitation  
Precipitation 0.15 in - - ()
Sea Level Pressure  
Sea Level Pressure 29.78 in    
Wind  
Wind Speed 2 mph (SSE)    
Max Wind Speed 7 mph    
Max Gust Speed -    
Visibility 5 miles    
Events Rain    
Averages and records for this station are not official NWS values.
T = Trace of Precipitation, MM = Missing Value Source: NWS Daily Summary

Daily Weather History Graph

Daily Weather History Graph

Search for Another Location

Airport or City:

Trip Planner

Search our weather history database for the weather conditions in past years. The results will help you decide how hot, cold, wet, or windy it might be!

Date:

Astronomy

Nov. 06, 2012 Rise Set
Actual Time 7:04 AM CST 4:42 PM CST
Civil Twilight 6:30 AM CST 5:15 PM CST
Nautical Twilight 5:53 AM CST 5:52 PM CST
Astronomical Twilight 5:17 AM CST 6:29 PM CST
Moon 11:28 PM CST (11/6) 12:52 PM CST (11/6)
Length of Visible Light 10h 44m
Length of Day
9h 38m
Waning Gibbous, 53% of the Moon is Illuminated
Nov 6
Waning Gibbous
Nov 6
Last Quarter
Nov 13
New
Nov 20
First Quarter
Nov 28
Full

Hourly Weather History & Observations

Time (CST) Temp. Windchill Dew Point Humidity Pressure Visibility Wind Dir Wind Speed Gust Speed Precip Events Conditions
12:07 AM 32.0 °F 25.6 °F 30.2 °F 93% 29.83 in 3.0 mi SSE 6.9 mph - N/A   Overcast
12:27 AM 32.0 °F - 30.2 °F 93% 29.83 in 5.0 mi Calm Calm - N/A Rain Light Rain
12:47 AM 33.8 °F - 30.2 °F 87% 29.82 in 7.0 mi Calm Calm - N/A Rain Light Rain
1:07 AM 32.0 °F 28.7 °F 30.2 °F 93% 29.80 in 4.0 mi SSE 3.5 mph - N/A Rain Light Rain
1:27 AM 32.0 °F 27.5 °F 30.2 °F 93% 29.79 in 3.0 mi SE 4.6 mph - N/A Rain Rain
1:47 AM 33.8 °F 30.8 °F 30.2 °F 87% 29.79 in 4.0 mi SE 3.5 mph - N/A Rain Light Rain
2:07 AM 33.8 °F 30.8 °F 30.2 °F 87% 29.78 in 3.0 mi SE 3.5 mph - N/A Rain Light Rain
2:27 AM 33.8 °F 30.8 °F 32.0 °F 93% 29.77 in 3.0 mi SSE 3.5 mph - N/A Rain Light Rain
2:47 AM 33.8 °F - 32.0 °F 93% 29.76 in 2.5 mi Calm Calm - 0.01 in   Drizzle
3:07 AM 33.8 °F 30.8 °F 32.0 °F 93% 29.75 in 2.0 mi SE 3.5 mph - 0.01 in Rain Light Rain
3:27 AM 33.8 °F 30.8 °F 30.2 °F 87% 29.73 in 2.0 mi SSE 3.5 mph - 0.02 in Rain Rain
3:47 AM 32.0 °F - 30.2 °F 93% 29.72 in 2.0 mi Calm Calm - 0.03 in Rain Light Rain
4:07 AM 32.0 °F - 30.2 °F 93% 29.71 in 2.5 mi Calm Calm - N/A Rain Light Rain
4:27 AM 33.8 °F - 32.0 °F 93% 29.71 in 4.0 mi Calm Calm - N/A Rain Light Rain
4:47 AM 33.8 °F 30.8 °F 32.0 °F 93% 29.70 in 2.5 mi SSE 3.5 mph - 0.01 in Rain Light Rain
5:07 AM 33.8 °F 30.8 °F 32.0 °F 93% 29.69 in 3.0 mi SSE 3.5 mph - N/A Rain Rain
5:27 AM 33.8 °F 30.8 °F 32.0 °F 93% 29.69 in 3.0 mi SSE 3.5 mph - N/A   Drizzle
5:47 AM 33.8 °F 30.8 °F 32.0 °F 93% 29.68 in 2.5 mi SSE 3.5 mph - N/A   Drizzle
6:07 AM 33.8 °F 30.8 °F 32.0 °F 93% 29.68 in 2.5 mi SSE 3.5 mph - N/A   Drizzle
6:27 AM 33.8 °F 28.6 °F 32.0 °F 93% 29.68 in 2.5 mi SSE 5.8 mph - 0.01 in Rain Light Rain
6:47 AM 33.8 °F 30.8 °F 32.0 °F 93% 29.68 in 2.5 mi SSE 3.5 mph - 0.01 in Rain Light Rain
7:07 AM 33.8 °F 30.8 °F 32.0 °F 93% 29.68 in 3.0 mi SSE 3.5 mph - N/A   Drizzle
7:27 AM 33.8 °F 29.6 °F 32.0 °F 93% 29.69 in 4.0 mi SSE 4.6 mph - 0.01 in Rain Light Rain
7:47 AM 33.8 °F 30.8 °F 32.0 °F 93% 29.69 in 4.0 mi SE 3.5 mph - 0.01 in Rain Light Rain
8:07 AM 33.8 °F 29.6 °F 33.8 °F 100% 29.68 in 4.0 mi SSE 4.6 mph - N/A   Light Drizzle
8:27 AM 33.8 °F 30.8 °F 33.8 °F 100% 29.68 in 5.0 mi SSE 3.5 mph - N/A   Overcast
8:47 AM 33.8 °F 30.8 °F 33.8 °F 100% 29.69 in 7.0 mi SSE 3.5 mph - N/A   Overcast
9:07 AM 33.8 °F 30.8 °F 33.8 °F 100% 29.69 in 7.0 mi SSE 3.5 mph - N/A   Overcast
9:27 AM 33.8 °F - 33.8 °F 100% 29.69 in 7.0 mi Calm Calm - N/A   Overcast
9:47 AM 35.6 °F 30.7 °F 33.8 °F 93% 29.69 in 7.0 mi SSE 5.8 mph - N/A   Light Drizzle
10:07 AM 35.6 °F - 33.8 °F 93% 29.69 in 7.0 mi Calm Calm - N/A   Light Drizzle
10:27 AM 35.6 °F - 33.8 °F 93% 29.69 in 10.0 mi Calm Calm - N/A   Overcast
10:47 AM 35.6 °F 31.7 °F 35.6 °F 100% 29.70 in 10.0 mi South 4.6 mph - N/A   Overcast
11:07 AM 35.6 °F 32.8 °F 35.6 °F 100% 29.70 in 7.0 mi South 3.5 mph - N/A   Light Drizzle
11:27 AM 35.6 °F - 35.6 °F 100% 29.71 in 7.0 mi Calm Calm - N/A   Overcast
11:47 AM 35.6 °F - 35.6 °F 100% 29.71 in 10.0 mi Calm Calm - N/A   Overcast
12:07 PM 35.6 °F 32.8 °F 35.6 °F 100% 29.71 in 10.0 mi WSW 3.5 mph - N/A   Overcast
12:27 PM 35.6 °F - 35.6 °F 100% 29.71 in 4.0 mi Calm Calm - N/A   Light Drizzle
12:47 PM 37.4 °F - 35.6 °F 93% 29.71 in 4.0 mi Calm Calm - N/A   Overcast
1:07 PM 37.4 °F - 35.6 °F 93% 29.72 in 7.0 mi Calm Calm - N/A   Overcast
1:27 PM 35.6 °F - 35.6 °F 100% 29.72 in 4.0 mi Calm Calm - N/A   Overcast
1:47 PM 35.6 °F - 35.6 °F 100% 29.73 in 1.5 mi Calm Calm - N/A   Heavy Drizzle
2:07 PM 35.6 °F - 35.6 °F 100% 29.74 in 2.0 mi Calm Calm - N/A Rain Rain
2:27 PM 37.4 °F - 35.6 °F 93% 29.74 in 4.0 mi Calm Calm - N/A Rain Light Rain
2:47 PM 35.6 °F - 35.6 °F 100% 29.75 in 7.0 mi Calm Calm - 0.03 in Rain Light Rain
3:07 PM 35.6 °F - 35.6 °F 100% 29.77 in 10.0 mi Calm Calm - N/A   Overcast
3:27 PM 35.6 °F - 35.6 °F 100% 29.78 in 3.0 mi Calm Calm - 0.01 in Rain Rain
3:47 PM 35.6 °F - 35.6 °F 100% 29.79 in 7.0 mi Calm Calm - 0.02 in   Overcast
4:07 PM 35.6 °F - 33.8 °F 93% 29.80 in 4.0 mi Calm Calm - 0.02 in Rain Light Rain
4:27 PM 35.6 °F - 33.8 °F 93% 29.81 in 7.0 mi Calm Calm - 0.03 in   Overcast
4:47 PM 35.6 °F - 33.8 °F 93% 29.82 in 4.0 mi Calm Calm - 0.03 in   Drizzle
5:27 PM 33.8 °F - 33.8 °F 100% 29.84 in 7.0 mi Calm Calm - N/A   Overcast
5:47 PM 33.8 °F - 33.8 °F 100% 29.84 in 7.0 mi Calm Calm - N/A   Overcast
6:07 PM 35.6 °F - 33.8 °F 93% 29.85 in 5.0 mi Calm Calm - N/A   Overcast
6:27 PM 35.6 °F - 33.8 °F 93% 29.86 in 7.0 mi Calm Calm - N/A   Overcast
6:47 PM 35.6 °F - 33.8 °F 93% 29.87 in 5.0 mi Calm Calm - N/A   Overcast
7:07 PM 35.6 °F - 33.8 °F 93% 29.87 in 4.0 mi Calm Calm - N/A   Drizzle
7:28 PM 35.6 °F - 35.6 °F 100% 29.87 in 7.0 mi Calm Calm - N/A   Overcast
7:47 PM 35.6 °F - 35.6 °F 100% 29.88 in 7.0 mi Calm Calm - N/A   Overcast
8:07 PM 35.6 °F - 35.6 °F 100% 29.88 in 10.0 mi Calm Calm - N/A   Overcast
8:27 PM 35.6 °F - 33.8 °F 93% 29.89 in 7.0 mi Calm Calm - N/A   Overcast
8:47 PM 35.6 °F 32.8 °F 33.8 °F 93% 29.90 in 5.0 mi NNW 3.5 mph - N/A   Overcast
9:07 PM 35.6 °F - 33.8 °F 93% 29.91 in 10.0 mi Calm Calm - N/A   Overcast
9:27 PM 35.6 °F - 33.8 °F 93% 29.91 in 7.0 mi Calm Calm - N/A   Overcast
9:47 PM 35.6 °F - 33.8 °F 93% 29.91 in 7.0 mi Calm Calm - N/A   Overcast
10:07 PM 35.6 °F - 33.8 °F 93% 29.92 in 5.0 mi Calm Calm - N/A   Overcast
10:27 PM 35.6 °F - 33.8 °F 93% 29.92 in 2.0 mi Calm Calm - N/A   Overcast
10:47 PM 35.6 °F - 33.8 °F 93% 29.92 in 4.0 mi Calm Calm - N/A   Overcast
11:07 PM 35.6 °F - 35.6 °F 100% 29.93 in 5.0 mi Calm Calm - N/A   Overcast
11:27 PM 35.6 °F - 33.8 °F 93% 29.94 in 7.0 mi Calm Calm - N/A   Overcast
11:47 PM 35.6 °F - 33.8 °F 93% 29.94 in 7.0 mi Calm Calm - N/A   Overcast